Regional Weather Roundup
Issued by NWS

Home | Current Version | Previous Version | Text Only | Print | Product List | Glossary Off
Versions: 1 2 3 4 5 6 7 8 9 10 11 12 13 14 15 16 17 18 19 20 21 22 23 24 25 26 27 28 29 30 31 32 33 34 35 36 37 38 39 40 41 42 43 44 45 46 47 48 49 50

000
ASUS45 KBOU 312107
RWRCO

WEATHER ROUNDUP FOR COLORADO
NATIONAL WEATHER SERVICE DENVER/BOULDER CO
300 PM MDT MON AUG 31 2015

NOTE: "FAIR" INDICATES FEW OR NO CLOUDS BELOW 12000 FEET WITH NO
SIGNIFICANT WEATHER AND/OR OBSTRUCTIONS TO VISIBILITY.

COZ001>005-013-030-031-312200-
...NORTHWEST COLORADO...

CITY           SKY/WX    TMP DP  RH WIND       PRES   REMARKS
CRAIG          CLOUDY    71  53  52 NE5       30.16F
HAYDEN         NOT AVBL
MEEKER         PTSUNNY   76  47  35 SW10G17   30.19F
MOUNT WERNER   NOT AVBL
STEAMBOAT SPGS FAIR      71  48  43 E7        30.23F
WALDEN         PTSUNNY   70  43  37 SW15      30.31R
$$

COZ006>008-011-312200-
...WEST CENTRAL VALLEYS...

CITY           SKY/WX    TMP DP  RH WIND       PRES   REMARKS
GRAND JUNCTION FAIR      79  52  38 VRB3      30.10F
MONTROSE       FAIR      79  49  34 VRB7      30.18F
EAGLE          NOT AVBL
RIFLE          FAIR      74  53  48 E3        30.18F
DELTA          FAIR      80  48  32 CALM      30.14F HAZE
NUCLA          PTSUNNY   77  34  20 W12G24    30.22F
$$

COZ017>023-064>068-312200-
...SOUTHWEST COLORADO...

CITY           SKY/WX    TMP DP  RH WIND       PRES   REMARKS
DURANGO        FAIR      81  44  27 W16G24    30.21F
CORTEZ         FAIR      83  47  28 S7        30.17F
PAGOSA SPRINGS PTSUNNY   71  50  47 N3        30.30F
TELLURIDE      FAIR      64  46  52 CALM      30.43F THUNDER
WOLF CREEK PAS NOT AVBL
$$

COZ009-010-012-014-032>034-037-058>063-312200-
...CENTRAL COLORADO...

CITY           SKY/WX    TMP DP  RH WIND       PRES   REMARKS
ASPEN          FAIR      64  48  56 CALM      30.34F
BUENA VISTA    FAIR      70  42  35 NW28G37   30.29S
COPPER MTN     RAIN      46  41  81 W22G31    30.62R VSB<1/4
BERTHOUD PASS  TSTM      37  27  65 NW21      30.66R
COTTONWOOD PAS PTSUNNY   70  39  32 CALM      30.44S
GUNNISON       CLOUDY    72  45  37 NW3       30.32R
KREMMLING      PTSUNNY   59  46  63 S10       30.36S
LEADVILLE      FAIR      57  45  64 N13       30.46F
MONARCH PASS   FAIR      52  37  58 SW23      30.70S
SALIDA         PTSUNNY   74  47  37 E7        30.33S
SUNLIGHT       FAIR      55  48  76 CALM      30.55F
WILKERSON PASS CLOUDY    61  36  39 SW3       30.57S THUNDER
$$

COZ069>075-312200-
...SAN LUIS VALLEY/SANGRE DE CRISTO MOUNTAINS...

CITY           SKY/WX    TMP DP  RH WIND       PRES   REMARKS
ALAMOSA        PTSUNNY   76  37  24 SE16      30.25S
LA VETA PASS   PTSUNNY   64  39  39 NE8       30.45F
SAGUACHE       CLOUDY    59  52  77 N5        30.34S
$$

COZ035-036-038>040-312200-
...NORTHERN COLORADO FRONT RANGE...

CITY           SKY/WX    TMP DP  RH WIND       PRES   REMARKS
DENVER INTL AP PTSUNNY   86  41  20 NW3       30.07F
DMNS CITY PARK   N/A     89  42  19 S1G13     30.06F
AURORA         PTSUNNY   83  43  24 CALM      30.09F
FRONT RANGE AP PTSUNNY   84  41  21 SE10      30.09F
ERIE MUNI ARPT FAIR      87  39  18 E5        30.05F
BOULDER MUN AP RAIN      81  46  30 N7        30.07F
CENTENNIAL     CLOUDY    81  44  27 N7        30.11F
BROOMFIELD     PTSUNNY   86  41  20 E9        30.10F
FORT COLLINS   FAIR      84  46  26 SE7       30.04F
LONGMONT       FAIR      86  43  21 NE6       30.07F
$$

COZ041-046-047-076>085-087-088-312200-
...PIKES PEAK/PALMER DIVIDE AND SOUTHERN FOOTHILLS...

CITY           SKY/WX    TMP DP  RH WIND       PRES   REMARKS
COLO. SPRINGS  TSTM      81  43  26 N16G25    30.15S
A. F. ACADEMY  PTSUNNY   78  45  30 E13       30.16F
ELLICOTT       FAIR     N/A N/A N/A SE8       30.13F
FALCON         CLOUDY    74  46  35 MISG      30.21F
FORT CARSON    PTSUNNY   84  47  27 E10G20    30.10F
LIMON          LGT RAIN  85  47  26 N9G21     30.09F
MONUMENT HILL  CLOUDY    73  43  33 E7        30.21F
TRINIDAD       LGT RAIN  75  51  43 NE9G22    30.11F
$$

COZ042>045-048>051-090-091-312200-
...NORTHEAST COLORADO...

CITY           SKY/WX    TMP DP  RH WIND       PRES   REMARKS
GREELEY ARPT   FAIR      86  46  25 SE5       30.04F
AKRON          FAIR      87  47  24 NE13      30.05F
BURLINGTON     FAIR      91  48  22 E7        29.98F
WRAY           CLOUDY    95  45  17 NE12G22   29.96F
STERLING       FAIR      86  50  28 E9        29.99F
HOLYOKE        FAIR      91  48  22 NE13      29.98F
FORT MORGAN    CLOUDY    85  44  24 NE5       30.05F
$$

COZ086-089-092>099-312200-
...SOUTHEAST COLORADO...

CITY           SKY/WX    TMP DP  RH WIND       PRES   REMARKS
PUEBLO         FAIR      91  45  20 S7        30.00F
LA JUNTA       FAIR      96  46  18 N13G20    29.96F
LAMAR          FAIR      93  55  27 E7        29.90F
SPRINGFIELD    NOT AVBL
$$




USA.gov is the U.S. government's official web portal to all federal, state and local government web resources and services.